Hurlburt Field, FL

5:39 PM CDT on August 18, 2017 (GMT -0500)
Hurlburt

Weather History for KHRT - December, 2011

Change the Weather History Date:

Wednesday, December 21, 2011

  Actual Average Record
Temperature  
Mean Temperature 70 °F -  
Max Temperature 75 °F 59 °F 75 °F (2011)
Min Temperature 65 °F 39 °F 24 °F (1996)
Cooling Degree Days 5    
Growing Degree Days 20 (Base 50)    
Moisture  
Dew Point 68 °F    
Average Humidity 97    
Maximum Humidity 100    
Minimum Humidity 83    
Precipitation  
Precipitation 0.33 in - - ()
Sea Level Pressure  
Sea Level Pressure 29.99 in    
Wind  
Wind Speed 7 mph (SSE)    
Max Wind Speed 15 mph    
Max Gust Speed 21 mph    
Visibility 7 miles    
Events Rain    
Averages and records for this station are not official NWS values.
T = Trace of Precipitation, MM = Missing Value Source: NWS Daily Summary

Daily Weather History Graph

Daily Weather History Graph

Search for Another Location

Airport or City:

Trip Planner

Search our weather history database for the weather conditions in past years. The results will help you decide how hot, cold, wet, or windy it might be!

Date:

Astronomy

Dec. 21, 2011 Rise Set
Actual Time 6:39 AM CST 4:50 PM CST
Civil Twilight 6:12 AM CST 5:16 PM CST
Nautical Twilight 5:42 AM CST 5:46 PM CST
Astronomical Twilight 5:13 AM CST 6:16 PM CST
Moon 3:16 AM CST (12/21) 2:06 PM CST (12/21)
Length of Visible Light 11h 03m
Length of Day
10h 10m
Waning Crescent, 12% of the Moon is Illuminated
Dec 21
Waning Crescent
Dec 24
New
Jan 1
First Quarter
Jan 9
Full
Jan 16
Last Quarter

Hourly Weather History & Observations

Time (CST) Temp. Dew Point Humidity Pressure Visibility Wind Dir Wind Speed Gust Speed Precip Events Conditions
12:00 AM 68.0 °F 68.0 °F 100% 30.01 in 9.0 mi SSE 15.0 mph - N/A Rain Light Rain
12:01 AM 68.0 °F 68.0 °F 100% 30.01 in 9.0 mi SSE 15.0 mph - N/A Rain Light Rain
12:13 AM 68.0 °F 68.0 °F 100% 30.01 in 9.0 mi SSE 12.7 mph - N/A   Light Drizzle
12:15 AM 68.0 °F 68.0 °F 100% 30.00 in 9.0 mi SSE 12.7 mph - N/A   Light Drizzle
12:16 AM 68.0 °F 68.0 °F 100% 30.00 in 9.0 mi SE 12.7 mph - N/A   Light Drizzle
12:17 AM 68.0 °F 68.0 °F 100% 30.00 in 9.0 mi SE 12.7 mph - N/A   Light Drizzle
12:24 AM 68.0 °F 68.0 °F 100% 30.00 in 9.0 mi SE 8.1 mph - N/A Rain Light Rain
12:27 AM 68.0 °F 68.0 °F 100% 29.98 in 9.0 mi ESE 8.1 mph - N/A Rain Light Rain
12:55 AM 68.0 °F 66.2 °F 94% 29.99 in 10.0 mi South 3.5 mph - N/A   Mostly Cloudy
1:55 AM 67.8 °F 66.7 °F 96% 29.99 in 10.0 mi Calm Calm - N/A   Overcast
1:56 AM 68.0 °F 66.2 °F 94% 29.99 in 10.0 mi SE 3.5 mph - N/A   Overcast
2:07 AM 68.0 °F 66.2 °F 94% 29.99 in 10.0 mi ESE 4.6 mph - N/A Rain Light Rain
2:20 AM 68.0 °F 66.2 °F 94% 29.99 in 10.0 mi SE 4.6 mph - N/A   Overcast
2:27 AM 68.0 °F 66.2 °F 94% 29.99 in 10.0 mi SE 6.9 mph - N/A   Overcast
2:28 AM 68.0 °F 66.2 °F 94% 29.99 in 10.0 mi SSE 5.8 mph - N/A Rain Light Rain
2:29 AM 68.0 °F 66.2 °F 94% 29.99 in 10.0 mi SSE 5.8 mph - N/A Rain Light Rain
2:36 AM 68.0 °F 66.2 °F 94% 30.00 in 5.0 mi SSE 4.6 mph - N/A Rain Rain
2:38 AM 68.0 °F 66.2 °F 94% 30.00 in 4.0 mi SSE 3.5 mph - N/A Rain Light Rain
2:48 AM 68.0 °F 68.0 °F 100% 29.99 in 3.0 mi Variable 3.5 mph - N/A Rain Heavy Rain
2:51 AM 68.0 °F 68.0 °F 100% 29.99 in 3.0 mi SSW 3.5 mph - N/A Rain Light Rain
2:55 AM 67.8 °F 67.3 °F 98% 29.99 in 4.0 mi Calm Calm - 0.10 in Rain Light Rain
2:57 AM 68.0 °F 68.0 °F 100% 29.99 in 5.0 mi West 3.5 mph - N/A Rain Light Rain
2:59 AM 68.0 °F 66.2 °F 94% 29.99 in 7.0 mi WNW 5.8 mph - N/A Rain Light Rain
3:09 AM 68.0 °F 68.0 °F 100% 29.99 in 9.0 mi West 4.6 mph - N/A Rain Light Rain
3:18 AM 68.0 °F 66.2 °F 94% 29.98 in 9.0 mi West 4.6 mph - N/A Rain Light Rain
3:31 AM 68.0 °F 66.2 °F 94% 29.98 in 10.0 mi WNW 4.6 mph - N/A   Overcast
3:55 AM 67.1 °F 66.6 °F 98% 29.97 in 10.0 mi NE 3.5 mph - 0.01 in   Overcast
3:56 AM 68.0 °F 66.2 °F 94% 29.97 in 10.0 mi NE 3.5 mph - N/A Rain Light Rain
4:03 AM 68.0 °F 66.2 °F 94% 29.97 in 6.0 mi Calm Calm - N/A Rain Light Rain
4:04 AM 68.0 °F 66.2 °F 94% 29.97 in 6.0 mi Calm Calm - N/A Rain Light Rain
4:06 AM 68.0 °F 66.2 °F 94% 29.97 in 6.0 mi Calm Calm - N/A Rain Light Rain
4:07 AM 68.0 °F 66.2 °F 94% 29.97 in 6.0 mi ENE 3.5 mph - N/A Rain Light Rain
4:08 AM 68.0 °F 66.2 °F 94% 29.97 in 6.0 mi ENE 3.5 mph - N/A Rain Light Rain
4:24 AM 68.0 °F 66.2 °F 94% 29.98 in 9.0 mi South 15.0 mph 20.7 mph N/A Rain Light Rain
4:25 AM 68.0 °F 66.2 °F 94% 29.98 in 9.0 mi SSW 15.0 mph 20.7 mph N/A Rain Light Rain
4:34 AM 66.2 °F 66.2 °F 100% 29.98 in 6.0 mi South 11.5 mph - N/A Rain Light Rain
4:36 AM 66.2 °F 66.2 °F 100% 29.98 in 6.0 mi South 10.4 mph - N/A Rain Light Rain
4:39 AM 66.2 °F 66.2 °F 100% 29.97 in 6.0 mi South 8.1 mph - N/A Rain Light Rain
4:41 AM 66.2 °F 66.2 °F 100% 29.97 in 5.0 mi SSW 8.1 mph - N/A Rain Light Rain
4:51 AM 66.2 °F 64.4 °F 94% 29.97 in 6.0 mi SSW 4.6 mph - N/A Rain Light Rain
4:55 AM 66.0 °F 65.1 °F 97% 29.98 in 7.0 mi Calm Calm - 0.05 in Rain Light Rain
4:58 AM 66.2 °F 64.4 °F 94% 29.97 in 6.0 mi East 3.5 mph - N/A Rain Light Rain
5:02 AM 66.2 °F 64.4 °F 94% 29.98 in 6.0 mi SE 4.6 mph - N/A Rain Light Rain
5:07 AM 66.2 °F 64.4 °F 94% 29.98 in 2.5 mi ESE 4.6 mph - N/A Rain Heavy Rain
5:09 AM 66.2 °F 64.4 °F 94% 29.98 in 2.0 mi ESE 4.6 mph - N/A Rain Heavy Rain
5:11 AM 66.2 °F 64.4 °F 94% 29.98 in 2.0 mi East 3.5 mph - N/A Rain Heavy Rain
5:16 AM 66.2 °F 64.4 °F 94% 29.98 in 3.0 mi East 3.5 mph - N/A Rain Light Rain
5:19 AM 66.2 °F 64.4 °F 94% 29.98 in 5.0 mi Calm Calm - N/A Rain Light Rain
5:27 AM 66.2 °F 64.4 °F 94% 29.98 in 10.0 mi Calm Calm - N/A   Overcast
5:32 AM 66.2 °F 64.4 °F 94% 29.98 in 10.0 mi Calm Calm - N/A   Light Drizzle
5:45 AM 66.2 °F 66.2 °F 100% 29.96 in 9.0 mi ENE 4.6 mph - N/A   Light Drizzle
5:54 AM 66.2 °F 64.4 °F 94% 29.96 in 7.0 mi East 8.1 mph - N/A   Light Drizzle
5:55 AM 65.5 °F 65.1 °F 99% 29.96 in 7.0 mi East 8.1 mph - 0.11 in   Light Drizzle
5:56 AM 66.2 °F 64.4 °F 94% 29.96 in 8.0 mi East 6.9 mph - N/A   Mostly Cloudy
6:00 AM 66.2 °F 64.4 °F 94% 29.96 in 9.0 mi East 5.8 mph - N/A   Mostly Cloudy
6:07 AM 66.2 °F 66.2 °F 100% 29.96 in 10.0 mi East 5.8 mph - N/A   Mostly Cloudy
6:18 AM 66.2 °F 66.2 °F 100% 29.96 in 10.0 mi East 5.8 mph - N/A   Mostly Cloudy
6:55 AM 65.8 °F 65.5 °F 99% 29.97 in 10.0 mi East 4.6 mph - 0.00 in   Light Drizzle
7:01 AM 66.2 °F 66.2 °F 100% 29.98 in 10.0 mi Calm Calm - N/A   Light Drizzle
7:13 AM 66.2 °F 66.2 °F 100% 29.98 in 10.0 mi ESE 3.5 mph - N/A   Overcast
7:21 AM 66.2 °F 66.2 °F 100% 29.98 in 10.0 mi SE 5.8 mph - N/A   Overcast
7:34 AM 68.0 °F 68.0 °F 100% 29.99 in 10.0 mi SSE 6.9 mph - N/A   Overcast
7:55 AM 68.9 °F 68.4 °F 98% 29.99 in 7.0 mi SSW 9.2 mph - 0.00 in   Overcast
8:43 AM 69.8 °F 69.8 °F 100% 30.01 in 7.0 mi South 11.5 mph - N/A   Overcast
8:52 AM 69.8 °F 69.8 °F 100% 30.02 in 8.0 mi SSW 10.4 mph - N/A   Overcast
8:54 AM 69.8 °F 69.8 °F 100% 30.02 in 8.0 mi SSW 11.5 mph - N/A   Overcast
8:55 AM 70.2 °F 69.3 °F 97% 30.02 in 8.0 mi SSW 11.5 mph - N/A   Overcast
8:59 AM 69.8 °F 69.8 °F 100% 30.02 in 8.0 mi SSW 11.5 mph 19.6 mph N/A   Overcast
9:48 AM 73.4 °F 69.8 °F 88% 30.03 in 10.0 mi South 11.5 mph - N/A   Mostly Cloudy
9:49 AM 73.4 °F 69.8 °F 88% 30.03 in 10.0 mi South 11.5 mph - N/A   Mostly Cloudy
9:55 AM 72.0 °F 69.4 °F 92% 30.03 in 10.0 mi South 10.4 mph - N/A   Mostly Cloudy
10:55 AM 71.4 °F 69.1 °F 92% 30.02 in 10.0 mi South 11.5 mph - N/A   Overcast
11:05 AM 71.6 °F 69.8 °F 94% 30.02 in 10.0 mi South 10.4 mph - N/A   Mostly Cloudy
11:11 AM 71.6 °F 69.8 °F 94% 30.01 in 10.0 mi South 11.5 mph - N/A   Mostly Cloudy
11:15 AM 71.6 °F 69.8 °F 94% 30.01 in 10.0 mi South 8.1 mph - N/A   Mostly Cloudy
11:31 AM 71.6 °F 69.8 °F 94% 30.00 in 10.0 mi South 11.5 mph - N/A   Overcast
11:42 AM 73.4 °F 69.8 °F 88% 29.99 in 10.0 mi South 10.4 mph - N/A   Overcast
11:44 AM 73.4 °F 69.8 °F 88% 29.99 in 10.0 mi South 11.5 mph - N/A   Mostly Cloudy
11:45 AM 73.4 °F 69.8 °F 88% 29.99 in 10.0 mi South 10.4 mph - N/A   Overcast
11:46 AM 73.4 °F 69.8 °F 88% 29.99 in 10.0 mi South 10.4 mph - N/A   Overcast
11:47 AM 73.4 °F 69.8 °F 88% 29.99 in 10.0 mi South 11.5 mph - N/A   Overcast
11:55 AM 72.7 °F 69.6 °F 90% 29.98 in 10.0 mi South 11.5 mph - N/A   Overcast
12:27 PM 73.4 °F 69.8 °F 88% 29.97 in 10.0 mi South 10.4 mph - N/A   Overcast
12:55 PM 74.7 °F 70.3 °F 86% 29.96 in 10.0 mi South 11.5 mph - N/A   Mostly Cloudy
1:13 PM 75.2 °F 69.8 °F 83% 29.97 in 10.0 mi South 12.7 mph - N/A   Scattered Clouds
1:14 PM 75.2 °F 69.8 °F 83% 29.97 in 10.0 mi South 11.5 mph - N/A   Scattered Clouds
1:16 PM 73.4 °F 69.8 °F 88% 29.97 in 10.0 mi South 12.7 mph - N/A   Mostly Cloudy
1:34 PM 71.6 °F 69.8 °F 94% 29.97 in 10.0 mi South 11.5 mph - N/A   Mostly Cloudy
1:55 PM 72.1 °F 69.8 °F 92% 29.96 in 10.0 mi South 10.4 mph - N/A   Overcast
2:07 PM 71.6 °F 69.8 °F 94% 29.96 in 10.0 mi South 9.2 mph - N/A Rain Light Rain
2:14 PM 71.6 °F 69.8 °F 94% 29.96 in 2.5 mi South 9.2 mph - N/A Rain Light Rain
2:15 PM 71.6 °F 69.8 °F 94% 29.96 in 1.8 mi South 9.2 mph - N/A Rain Light Rain
2:16 PM 71.6 °F 69.8 °F 94% 29.96 in 1.5 mi SSW 8.1 mph - N/A Rain Rain
2:17 PM 71.6 °F 69.8 °F 94% 29.96 in 1.2 mi South 6.9 mph - N/A Rain Light Rain
2:20 PM 71.6 °F 69.8 °F 94% 29.96 in 1.2 mi South 5.8 mph - N/A Rain Light Rain
2:21 PM 71.6 °F 69.8 °F 94% 29.96 in 1.2 mi South 5.8 mph - N/A Rain Light Rain
2:23 PM 71.6 °F 69.8 °F 94% 29.96 in 1.5 mi South 8.1 mph - N/A Rain Light Rain
2:24 PM 69.8 °F 69.8 °F 100% 29.96 in 1.8 mi South 8.1 mph - N/A Rain Light Rain
2:25 PM 69.8 °F 69.8 °F 100% 29.96 in 2.5 mi South 10.4 mph - N/A Rain Light Rain
2:26 PM 69.8 °F 69.8 °F 100% 29.96 in 3.0 mi South 10.4 mph - N/A Rain Light Rain
2:29 PM 71.6 °F 69.8 °F 94% 29.96 in 8.0 mi South 10.4 mph - N/A   Overcast
2:32 PM 71.6 °F 69.8 °F 94% 29.96 in 10.0 mi South 9.2 mph - N/A   Overcast
2:43 PM 71.6 °F 69.8 °F 94% 29.96 in 10.0 mi South 10.4 mph - N/A   Overcast
2:55 PM 70.9 °F 70.3 °F 98% 29.96 in 10.0 mi South 9.2 mph - 0.06 in   Overcast
3:32 PM 69.8 °F 69.8 °F 100% 29.97 in 10.0 mi South 8.1 mph - N/A   Overcast
3:42 PM 69.8 °F 69.8 °F 100% 29.97 in 10.0 mi South 6.9 mph - N/A   Overcast
3:55 PM 70.3 °F 69.6 °F 98% 29.97 in 10.0 mi South 8.1 mph - N/A   Overcast
4:40 PM 69.8 °F 69.8 °F 100% 29.97 in 8.0 mi South 6.9 mph - N/A   Overcast
4:55 PM 69.6 °F 69.4 °F 99% 29.97 in 8.0 mi SSE 6.9 mph - N/A   Overcast
5:02 PM 69.8 °F 69.8 °F 100% 29.97 in 8.0 mi South 6.9 mph - N/A   Overcast
5:08 PM 69.8 °F 69.8 °F 100% 29.97 in 9.0 mi SSE 8.1 mph - N/A   Overcast
5:11 PM 69.8 °F 69.8 °F 100% 29.97 in 10.0 mi SSE 5.8 mph - N/A   Overcast
5:17 PM 69.8 °F 69.8 °F 100% 29.97 in 10.0 mi SSE 5.8 mph - N/A   Overcast
5:19 PM 69.8 °F 69.8 °F 100% 29.97 in 9.0 mi South 6.9 mph - N/A   Overcast
5:23 PM 69.8 °F 69.8 °F 100% 29.97 in 9.0 mi South 5.8 mph - N/A   Overcast
5:27 PM 69.8 °F 69.8 °F 100% 29.97 in 8.0 mi South 4.6 mph - N/A   Overcast
5:55 PM 69.4 °F 69.1 °F 99% 29.98 in 8.0 mi South 5.8 mph - N/A   Overcast
6:33 PM 69.8 °F 69.8 °F 100% 30.00 in 9.0 mi South 6.9 mph - N/A   Overcast
6:46 PM 69.8 °F 69.8 °F 100% 30.00 in 9.0 mi South 6.9 mph - N/A   Overcast
6:55 PM 69.4 °F 69.1 °F 99% 30.00 in 9.0 mi South 5.8 mph - N/A   Overcast
6:59 PM 69.8 °F 69.8 °F 100% 30.01 in 9.0 mi SSE 6.9 mph - N/A   Overcast
7:24 PM 69.8 °F 68.0 °F 94% 30.01 in 10.0 mi SSE 6.9 mph - N/A   Overcast
7:54 PM 69.8 °F 68.0 °F 94% 30.01 in 10.0 mi Calm Calm - N/A   Overcast
7:55 PM 69.1 °F 68.7 °F 99% 30.01 in 10.0 mi Calm Calm - N/A   Overcast
8:46 PM 69.8 °F 68.0 °F 94% 30.01 in 10.0 mi SE 4.6 mph - N/A   Overcast
8:55 PM 68.7 °F 68.5 °F 99% 30.01 in 10.0 mi SSE 4.6 mph - N/A   Overcast
9:17 PM 68.0 °F 68.0 °F 100% 30.01 in 10.0 mi Calm Calm - N/A   Overcast
9:30 PM 68.0 °F 68.0 °F 100% 30.01 in 7.0 mi Calm Calm - N/A   Overcast
9:35 PM 68.0 °F 68.0 °F 100% 30.01 in 2.5 mi Calm Calm - N/A   Overcast
9:37 PM 68.0 °F 68.0 °F 100% 30.01 in 1.8 mi Calm Calm - N/A   Overcast
9:38 PM 68.0 °F 68.0 °F 100% 30.01 in 1.5 mi Calm Calm - N/A   Overcast
9:39 PM 68.0 °F 68.0 °F 100% 30.01 in 1.2 mi Calm Calm - N/A   Overcast
9:40 PM 68.0 °F 68.0 °F 100% 30.01 in 1.0 mi Calm Calm - N/A   Overcast
9:49 PM 68.0 °F 68.0 °F 100% 30.01 in 1.2 mi Calm Calm - N/A   Overcast
9:50 PM 68.0 °F 68.0 °F 100% 30.01 in 1.2 mi Calm Calm - N/A   Overcast
9:51 PM 68.0 °F 68.0 °F 100% 30.01 in 1.5 mi Calm Calm - N/A   Overcast
9:52 PM 68.0 °F 68.0 °F 100% 30.01 in 1.8 mi Calm Calm - N/A   Overcast
9:53 PM 68.0 °F 68.0 °F 100% 30.01 in 2.0 mi Calm Calm - N/A   Overcast
9:55 PM 67.1 °F 67.1 °F 100% 30.01 in 3.0 mi Calm Calm - N/A   Overcast
10:33 PM 68.0 °F 68.0 °F 100% 30.01 in 6.0 mi SSE 8.1 mph - N/A   Overcast
10:47 PM 68.0 °F 68.0 °F 100% 30.01 in 8.0 mi SE 3.5 mph - N/A   Overcast
10:55 PM 68.0 °F 68.0 °F 100% 30.01 in 7.0 mi SE 4.6 mph - N/A   Overcast
11:35 PM 68.0 °F 68.0 °F 100% 30.00 in 3.0 mi Calm Calm - N/A   Overcast
11:40 PM 68.0 °F 68.0 °F 100% 30.00 in 2.5 mi Calm Calm - N/A   Overcast
11:47 PM 68.0 °F 68.0 °F 100% 30.00 in 2.0 mi Calm Calm - N/A   Overcast
11:48 PM 68.0 °F 68.0 °F 100% 30.00 in 1.8 mi Calm Calm - N/A   Overcast
11:50 PM 68.0 °F 68.0 °F 100% 30.00 in 1.5 mi Calm Calm - N/A   Overcast
11:51 PM 68.0 °F 68.0 °F 100% 30.00 in 1.2 mi Calm Calm - N/A   Overcast
11:54 PM 68.0 °F 68.0 °F 100% 30.00 in 1.0 mi Calm Calm - N/A   Overcast
11:55 PM 67.5 °F 67.5 °F 100% 30.00 in 1.0 mi Calm Calm - N/A   Overcast
11:56 PM 68.0 °F 68.0 °F 100% 30.00 in 0.8 mi Calm Calm - N/A   Overcast
11:57 PM 68.0 °F 68.0 °F 100% 30.00 in 0.8 mi Calm Calm - N/A   Overcast